GW4712 Weather Reports


time (UTC)temp
F
wind
direction
speed
knots
gust
knots
rain 1hr
in
rain 24hr
in
rain mn
in
humidity
%
barometer
mb
20260906002630 73 222 0.0 0.0 0.00 0.41 0.41 97 1013.1
20260906002125 73 222 0.0 0.0 0.00 0.41 0.41 97 1013.1
20260906001621 73 222 0.0 0.0 0.00 0.41 0.41 97 1013.0
20260906001120 73 222 0.0 0.0 0.00 0.41 0.41 97 1012.9
20260906000616 73 222 0.0 0.0 0.00 0.41 0.41 97 1012.8
20260906000112 72 222 0.0 0.0 0.00 0.41 0.41 97 1013.1
20260905235610 73 222 0.0 0.0 0.00 0.41 0.41 96 1013.0
20260905235106 73 222 0.0 0.0 0.00 0.41 0.41 96 1013.0
20260905234601 73 222 0.0 0.0 0.00 0.41 0.41 95 1013.0
20260905234056 74 222 0.0 0.0 0.00 0.41 0.41 94 1013.1
20260905233556 74 222 0.0 0.0 0.00 0.41 0.41 93 1012.9
20260905233051 75 222 0.0 0.0 0.00 0.41 0.41 92 1012.7
20260905232546 75 223 0.0 0.0 0.00 0.41 0.41 91 1012.9
20260905232041 76 223 0.0 0.0 0.00 0.41 0.41 90 1013.0
20260905231537 76 217 0.0 0.0 0.00 0.41 0.41 90 1013.0
20260905231033 76 217 0.0 0.0 0.00 0.41 0.41 90 1012.9
20260905230532 77 218 0.0 0.0 0.00 0.41 0.41 88 1013.1
20260905230030 77 218 0.0 0.0 0.00 0.41 0.41 88 1012.9
20260905225525 78 218 0.0 0.0 0.00 0.41 0.41 86 1013.0
20260905225020 78 218 0.0 0.0 0.00 0.41 0.41 86 1012.9
20260905224515 79 219 0.0 0.0 0.00 0.41 0.41 85 1012.9
20260905224015 80 231 0.0 0.0 0.00 0.41 0.41 84 1013.0
20260905223513 82 235 0.0 0.0 0.00 0.41 0.41 79 1013.0
20260905223008 82 270 0.0 0.0 0.00 0.41 0.41 75 1013.0
20260905222507 83 251 0.0 0.0 0.00 0.41 0.41 72 1012.9
20260905222002 83 276 0.0 0.0 0.00 0.41 0.41 71 1013.0
20260905221459 83 250 0.0 0.0 0.00 0.41 0.41 71 1013.1
20260905220955 83 3 0.0 0.0 0.00 0.41 0.41 69 1012.9
20260905220451 84 271 0.0 0.0 0.00 0.41 0.41 69 1013.0
20260905215949 84 322 0.0 0.0 0.00 0.41 0.41 68 1013.1
20260905215446 84 4 0.0 0.0 0.00 0.41 0.41 67 1012.9
20260905214942 83 22 0.0 0.0 0.00 0.41 0.41 71 1012.9
20260905214437 84 276 0.0 0.0 0.00 0.41 0.41 71 1012.9
20260905213937 84 249 0.0 0.0 0.00 0.41 0.41 71 1012.8
20260905213434 84 243 0.0 0.0 0.00 0.41 0.41 68 1012.8
20260905212928 84 253 0.0 0.0 0.00 0.41 0.41 68 1012.8
20260905212423 84 246 0.0 0.0 0.00 0.41 0.41 68 1012.7
20260905211922 84 11 0.0 0.0 0.00 0.41 0.41 66 1012.5
20260905211418 84 345 0.0 0.0 0.00 0.41 0.41 69 1012.5
20260905210914 83 262 0.0 0.0 0.00 0.41 0.41 74 1012.5
20260905210409 83 303 0.0 0.0 0.00 0.41 0.41 70 1012.5
20260905205908 83 301 0.0 0.0 0.00 0.41 0.41 69 1012.7
20260905205357 83 293 0.0 0.0 0.00 0.41 0.41 71 1012.6
20260905204856 84 265 0.0 0.0 0.00 0.41 0.41 67 1012.8
20260905204352 84 265 0.0 0.0 0.00 0.41 0.41 66 1012.8
20260905203845 84 347 0.0 0.0 0.00 0.41 0.41 71 1012.9
20260905203341 83 4 0.0 0.0 0.00 0.41 0.41 68 1013.0
20260905202837 82 23 0.0 0.0 0.00 0.41 0.41 71 1013.1
20260905202331 83 358 0.0 0.0 0.00 0.41 0.41 72 1012.9
20260905201827 83 307 0.0 0.0 0.00 0.41 0.41 71 1013.0
20260905201322 84 300 0.0 0.0 0.00 0.41 0.41 66 1012.9
20260905200822 83 34 0.0 0.0 0.00 0.41 0.41 69 1012.9
20260905200318 82 69 0.0 0.0 0.00 0.41 0.41 72 1013.0
20260905195815 82 9 0.0 0.0 0.00 0.41 0.41 70 1013.2
20260905195311 81 34 0.0 0.0 0.00 0.41 0.41 76 1013.3
20260905194807 82 39 0.0 0.0 0.00 0.41 0.41 73 1013.1
20260905194307 83 20 0.0 0.0 0.00 0.41 0.41 71 1013.3
20260905193806 84 244 0.0 0.0 0.00 0.41 0.41 67 1013.5
20260905193302 83 297 0.0 0.0 0.00 0.41 0.41 71 1013.6
20260905192757 84 241 0.0 0.0 0.00 0.41 0.41 68 1013.9
20260905192253 83 246 0.0 0.0 0.00 0.41 0.41 67 1013.7
20260905191752 83 291 0.0 0.0 0.00 0.41 0.41 73 1013.8
20260905191250 83 295 0.0 0.0 0.00 0.41 0.41 70 1013.7
20260905190749 82 299 0.0 0.0 0.00 0.41 0.41 69 1013.7
20260905190248 83 260 0.0 0.0 0.00 0.41 0.41 70 1013.9
20260905185747 83 260 0.0 0.0 0.00 0.41 0.41 69 1013.8
20260905185243 83 241 0.0 0.0 0.00 0.41 0.41 72 1014.1
20260905184736 82 303 0.0 0.0 0.00 0.41 0.41 73 1014.1
20260905184236 82 296 0.0 0.0 0.00 0.41 0.41 77 1014.2
20260905183735 83 249 0.0 0.0 0.00 0.41 0.41 70 1014.1
20260905183231 83 262 0.0 0.0 0.00 0.41 0.41 67 1014.3
20260905182724 82 221 0.0 0.0 0.00 0.41 0.41 69 1014.2
20260905182224 82 284 0.0 0.0 0.00 0.41 0.41 77 1014.1
20260905181719 80 274 0.0 0.0 0.00 0.41 0.41 75 1014.2
20260905181218 80 344 0.0 0.0 0.00 0.41 0.41 76 1014.1
20260905180713 82 56 0.0 0.0 0.00 0.41 0.41 73 1014.2
20260905180209 82 163 0.0 0.0 0.00 0.41 0.41 74 1014.1
20260905175708 82 143 0.0 0.0 0.00 0.41 0.41 72 1014.2
20260905175203 81 121 0.0 0.0 0.00 0.41 0.41 74 1014.3
20260905174658 81 74 0.0 0.0 0.00 0.41 0.41 78 1014.4
20260905174154 81 307 0.0 0.0 0.00 0.41 0.41 73 1014.4
20260905173651 81 251 0.0 0.0 0.00 0.41 0.41 72 1014.4
20260905173146 81 261 0.0 0.0 0.00 0.41 0.41 72 1014.6
20260905172645 81 352 0.0 0.0 0.00 0.41 0.41 71 1014.7
20260905172145 80 298 0.0 0.0 0.00 0.41 0.41 75 1014.7
20260905171641 80 247 0.0 0.0 0.00 0.41 0.41 76 1014.8
20260905171137 80 36 0.0 0.0 0.00 0.41 0.41 75 1015.1
20260905170633 80 165 0.0 0.0 0.00 0.41 0.41 78 1015.2
20260905170128 80 249 0.0 0.0 0.00 0.41 0.41 75 1015.4
20260905165623 79 252 0.0 0.0 0.00 0.41 0.41 74 1015.3
20260905165118 79 245 0.0 0.0 0.00 0.41 0.41 75 1015.5
20260905164613 79 248 0.0 0.0 0.00 0.41 0.41 77 1015.5
20260905164112 79 243 0.0 0.0 0.00 0.41 0.41 73 1015.3
20260905163609 78 266 0.0 0.0 0.00 0.41 0.41 74 1015.4
20260905163105 78 22 0.0 0.0 0.00 0.41 0.41 77 1015.4
20260905162601 77 355 0.0 0.0 0.00 0.41 0.41 77 1015.7
20260905162055 77 41 0.0 0.0 0.00 0.41 0.41 79 1015.5
20260905161555 77 105 0.0 0.0 0.00 0.41 0.41 85 1015.6
20260905161052 76 230 0.0 0.0 0.00 0.41 0.41 82 1015.8
20260905160551 76 248 0.0 0.0 0.00 0.41 0.41 81 1015.9
20260905160051 76 24 0.0 0.0 0.00 0.41 0.41 82 1015.9
20260905155545 76 53 0.0 0.0 0.00 0.41 0.41 85 1015.7
20260905155044 75 68 0.0 0.0 0.00 0.41 0.41 88 1015.9
20260905154539 75 89 0.0 0.0 0.00 0.41 0.41 89 1015.7
20260905154034 74 256 0.0 0.0 0.00 0.41 0.41 90 1015.7
20260905153530 73 281 0.0 0.0 0.00 0.41 0.41 93 1015.6
20260905153030 73 330 0.0 0.0 0.00 0.41 0.41 93 1015.7
20260905152525 73 320 0.0 0.0 0.00 0.41 0.41 95 1015.9
20260905152020 72 355 0.0 0.0 0.00 0.41 0.41 96 1016.2
20260905151515 72 355 0.0 0.0 0.00 0.41 0.41 97 1016.1
20260905151010 72 250 0.0 0.0 0.00 0.41 0.41 96 1016.3
20260905150505 72 9 0.0 0.0 0.00 0.41 0.41 97 1016.4
20260905150002 72 359 0.0 0.0 0.00 0.41 0.41 98 1016.4
20260905145457 72 4 0.0 0.0 0.00 0.41 0.41 98 1016.4
20260905144956 72 10 0.0 0.0 0.00 0.41 0.41 98 1016.3
20260905144452 73 7 0.0 0.0 0.00 0.41 0.41 98 1016.1
20260905143950 72 303 0.0 0.0 0.00 0.41 0.41 98 1015.5
20260905143449 72 306 0.0 0.0 0.00 0.41 0.41 99 1015.1
20260905142944 71 40 0.0 0.0 0.00 0.41 0.41 98 1014.6
20260905142443 71 43 0.0 0.0 0.00 0.41 0.41 98 1014.1
20260905141939 71 47 0.0 0.0 0.00 0.41 0.41 99 1013.8
20260905141433 71 2 0.0 0.0 0.00 0.41 0.41 99 1013.6
20260905140930 71 266 0.0 0.0 0.00 0.41 0.41 99 1014.1
20260905140425 71 215 0.0 0.0 0.00 0.41 0.41 99 1014.0
20260905135924 71 214 0.0 0.0 0.00 0.41 0.41 99 1013.6
20260905135419 71 350 0.0 0.0 0.00 0.41 0.41 99 1013.5
20260905134915 70 88 0.0 0.0 0.00 0.41 0.41 99 1013.9
20260905134414 70 110 0.0 0.0 0.07 0.41 0.41 99 1013.9
20260905133908 70 127 0.0 0.0 0.07 0.41 0.41 99 1014.5
20260905133403 70 189 0.0 0.0 0.05 0.40 0.40 99 1014.7
20260905132903 70 205 0.0 0.0 0.05 0.40 0.40 99 1014.7
20260905132358 70 208 0.0 0.0 0.07 0.39 0.39 99 1014.8
20260905131858 70 208 0.0 0.0 0.07 0.39 0.39 99 1015.2
20260905131354 70 48 0.0 0.0 0.05 0.38 0.38 99 1015.2
20260905130849 70 47 0.0 0.0 0.12 0.38 0.38 99 1015.1
20260905130347 70 43 0.0 0.0 0.12 0.37 0.37 99 1014.8
20260905125843 71 26 0.0 0.0 0.12 0.36 0.36 99 1015.1
20260905125337 71 8 0.0 0.0 0.12 0.35 0.35 99 1015.2
20260905124834 71 6 0.0 0.0 0.12 0.34 0.34 99 1015.4
20260905124330 71 6 0.0 0.0 0.07 0.33 0.33 99 1015.7
20260905123830 71 252 0.0 0.0 0.05 0.32 0.32 99 1015.5
20260905123327 71 222 0.0 0.0 0.05 0.32 0.32 99 1015.6
20260905122826 71 272 0.0 0.0 0.00 0.31 0.31 99 1015.9
20260905122326 71 277 0.0 0.0 0.07 0.31 0.31 99 1016.1
20260905121821 71 305 0.0 0.0 0.07 0.31 0.31 99 1016.3
20260905121318 71 16 0.0 0.9 0.07 0.30 0.30 99 1016.3
20260905120816 70 11 0.0 0.0 0.12 0.30 0.30 99 1016.3
20260905120311 70 20 0.0 0.0 0.24 0.29 0.29 99 1016.1
20260905115807 70 21 0.0 0.0 0.24 0.27 0.27 99 1015.8
20260905115306 70 20 0.0 0.0 0.24 0.25 0.25 99 1015.5
20260905114806 70 24 0.0 0.0 0.24 0.22 0.22 99 1015.3
20260905114305 69 24 0.0 0.0 0.42 0.21 0.21 99 1014.8
20260905113804 69 20 0.0 0.0 0.35 0.17 0.17 99 1015.1
20260905113300 69 20 0.0 0.0 0.24 0.13 0.13 99 1015.2
20260905112755 69 13 0.0 0.0 0.24 0.11 0.11 99 1014.7
20260905112249 69 13 0.0 0.0 0.54 0.09 0.09 99 1014.6
20260905111744 69 13 0.0 0.0 0.42 0.07 0.07 99 1014.3
20260905111239 69 12 0.0 0.0 0.00 0.00 0.00 99 1014.2
20260905110739 69 12 0.0 0.0 0.00 0.00 0.00 99 1014.0
20260905110233 69 12 0.0 0.0 0.00 0.00 0.00 99 1013.8
20260905105728 69 12 0.0 0.0 0.00 0.00 0.00 99 1013.7
20260905105227 69 12 0.0 0.0 0.00 0.00 0.00 99 1013.8
20260905104722 69 12 0.0 0.0 0.00 0.00 0.00 99 1014.0
20260905104219 69 12 0.0 0.0 0.00 0.00 0.00 99 1013.9
20260905103713 69 12 0.0 0.0 0.00 0.00 0.00 99 1014.0
20260905103209 69 12 0.0 0.0 0.00 0.00 0.00 99 1013.5
20260905102704 68 12 0.0 0.0 0.00 0.00 0.00 99 1013.8
20260905102201 68 12 0.0 0.0 0.00 0.00 0.00 99 1013.8
20260905101659 69 12 0.0 0.0 0.00 0.00 0.00 99 1013.8
20260905101158 69 12 0.0 0.0 0.00 0.00 0.00 99 1013.8
20260905100654 69 12 0.0 0.0 0.00 0.00 0.00 99 1013.8
20260905100149 68 12 0.0 0.0 0.00 0.00 0.00 99 1013.8
20260905095648 68 12 0.0 0.0 0.00 0.00 0.00 99 1013.8
20260905095143 68 12 0.0 0.0 0.00 0.00 0.00 99 1013.8
20260905094638 68 12 0.0 0.0 0.00 0.00 0.00 99 1013.5
20260905094138 68 12 0.0 0.0 0.00 0.00 0.00 99 1013.8
20260905093632 69 12 0.0 0.0 0.00 0.00 0.00 99 1013.8
20260905093128 69 12 0.0 0.0 0.00 0.00 0.00 99 1013.9
20260905092623 69 12 0.0 0.0 0.00 0.00 0.00 99 1013.9
20260905092119 69 12 0.0 0.0 0.00 0.00 0.00 99 1013.9
20260905091618 68 12 0.0 0.0 0.00 0.00 0.00 99 1013.8
20260905091113 68 13 0.0 0.0 0.00 0.00 0.00 99 1013.8
20260905090613 68 12 0.0 0.0 0.00 0.00 0.00 99 1014.1
20260905090109 69 12 0.0 0.0 0.00 0.00 0.00 99 1013.9
20260905085607 69 12 0.0 0.0 0.00 0.00 0.00 99 1013.7
20260905085103 69 12 0.0 0.0 0.00 0.00 0.00 99 1013.7
20260905084601 69 12 0.0 0.0 0.00 0.00 0.00 99 1013.7
20260905084056 69 12 0.0 0.0 0.00 0.00 0.00 99 1013.6
20260905083551 69 12 0.0 0.0 0.00 0.00 0.00 99 1013.7
20260905083048 69 12 0.0 0.0 0.00 0.00 0.00 99 1013.7
20260905082543 69 12 0.0 0.0 0.00 0.00 0.00 99 1013.8
20260905082039 69 12 0.0 0.0 0.00 0.00 0.00 99 1013.6
20260905081537 69 12 0.0 0.0 0.00 0.00 0.00 99 1013.9
20260905081032 69 12 0.0 0.0 0.00 0.00 0.00 99 1013.8
20260905080526 69 12 0.0 0.0 0.00 0.00 0.00 99 1014.0
20260905080022 69 12 0.0 0.0 0.00 0.00 0.00 99 1013.9
20260905075515 69 12 0.0 0.0 0.00 0.00 0.00 99 1013.9
20260905075014 69 12 0.0 0.0 0.00 0.00 0.00 99 1014.0
20260905074504 69 12 0.0 0.0 0.00 0.00 0.00 99 1014.0
20260905073959 69 12 0.0 0.0 0.00 0.00 0.00 99 1014.2
20260905073454 69 12 0.0 0.0 0.00 0.00 0.00 99 1014.2
20260905072950 69 12 0.0 0.0 0.00 0.00 0.00 99 1014.2
20260905072444 69 12 0.0 0.0 0.00 0.00 0.00 99 1014.2
20260905071940 69 12 0.0 0.0 0.00 0.00 0.00 99 1014.2
20260905071437 69 12 0.0 0.0 0.00 0.00 0.00 99 1014.1
20260905070936 69 12 0.0 0.0 0.00 0.00 0.00 99 1014.3
20260905070433 69 12 0.0 0.0 0.00 0.00 0.00 99 1014.2
20260905065932 69 12 0.0 0.0 0.00 0.00 0.00 99 1014.5
20260905065430 69 12 0.0 0.0 0.00 0.00 0.00 99 1014.4
20260905064926 69 13 0.0 0.0 0.00 0.00 0.00 99 1014.6
20260905064421 69 13 0.0 0.0 0.00 0.00 0.00 99 1014.6
20260905063920 69 13 0.0 0.0 0.00 0.00 0.00 99 1014.7
20260905063415 69 13 0.0 0.0 0.00 0.00 0.00 99 1014.9
20260905062912 69 13 0.0 0.0 0.00 0.00 0.00 99 1014.9
20260905062412 69 13 0.0 0.0 0.00 0.00 0.00 99 1015.2
20260905061907 69 13 0.0 0.0 0.00 0.00 0.00 99 1015.2
20260905061401 69 13 0.0 0.0 0.00 0.00 0.00 99 1015.4
20260905060901 69 13 0.0 0.0 0.00 0.00 0.00 99 1015.5
20260905060357 69 13 0.0 0.0 0.00 0.00 0.00 99 1015.5
20260905055856 69 13 0.0 0.0 0.00 0.00 0.00 99 1015.6
20260905055352 69 13 0.0 0.0 0.00 0.00 0.00 99 1015.7
20260905054851 69 13 0.0 0.0 0.00 0.00 0.00 99 1015.6
20260905054347 69 13 0.0 0.0 0.00 0.00 0.00 99 1015.9
20260905053847 70 13 0.0 0.0 0.00 0.00 0.00 99 1015.9
20260905053341 70 13 0.0 0.0 0.00 0.00 0.00 99 1015.9
20260905052837 70 13 0.0 0.0 0.00 0.00 0.00 99 1016.1
20260905052336 70 13 0.0 0.0 0.00 0.00 0.00 99 1016.1
20260905051836 69 13 0.0 0.0 0.00 0.00 0.00 99 1016.2
20260905051332 69 13 0.0 0.0 0.00 0.00 0.00 99 1016.2
20260905050830 69 13 0.0 0.0 0.00 0.00 0.00 99 1016.3
20260905050326 69 13 0.0 0.0 0.00 0.00 0.00 99 1016.2
20260905045825 69 13 0.0 0.0 0.00 0.00 0.00 99 1016.2
20260905045320 69 13 0.0 0.0 0.00 0.00 0.00 99 1016.1
20260905044816 69 13 0.0 0.0 0.00 0.00 0.00 99 1016.1
20260905044311 70 12 0.0 0.0 0.00 0.00 0.00 99 1016.0
20260905043809 69 12 0.0 0.0 0.00 0.00 0.00 99 1016.2
20260905043304 69 12 0.0 0.0 0.00 0.00 0.00 99 1016.0
20260905042805 69 13 0.0 0.0 0.00 0.00 0.00 99 1016.1
20260905042259 69 13 0.0 0.0 0.00 0.00 0.00 99 1016.3
20260905041754 69 13 0.0 0.0 0.00 0.00 0.00 99 1016.2
20260905041250 69 13 0.0 0.0 0.00 0.00 0.00 99 1016.2
20260905040750 69 13 0.0 0.0 0.00 0.00 0.00 99 1016.3
20260905040248 69 13 0.0 0.0 0.00 0.75 0.75 99 1016.4
20260905035743 69 13 0.0 0.0 0.00 0.75 0.75 99 1016.3
20260905035240 69 13 0.0 0.0 0.00 0.75 0.75 99 1016.3
20260905034737 70 13 0.0 0.0 0.00 0.75 0.75 99 1016.3
20260905034236 70 13 0.0 0.0 0.00 0.75 0.75 99 1016.5
20260905033735 70 13 0.0 0.0 0.00 0.75 0.75 99 1016.3
20260905033231 70 13 0.0 0.0 0.00 0.75 0.75 99 1016.2
20260905032730 70 13 0.0 0.0 0.00 0.75 0.75 99 1016.3
20260905032225 70 13 0.0 0.0 0.00 0.75 0.75 99 1016.3
20260905031721 70 13 0.0 0.0 0.00 0.75 0.75 99 1016.0
20260905031216 70 12 0.0 0.0 0.00 0.75 0.75 99 1016.2
20260905030711 70 12 0.0 0.0 0.00 0.75 0.75 99 1016.1
20260905030201 70 12 0.0 0.0 0.00 0.75 0.75 99 1016.3
20260905025656 70 12 0.0 0.0 0.00 0.75 0.75 99 1016.4
20260905025151 70 12 0.0 0.0 0.00 0.75 0.75 99 1016.4
20260905024647 70 12 0.0 0.0 0.00 0.75 0.75 99 1016.2
20260905024143 70 12 0.0 0.0 0.00 0.75 0.75 99 1016.5
20260905023638 70 12 0.0 0.0 0.00 0.75 0.75 99 1016.2
20260905023137 70 12 0.0 0.0 0.00 0.75 0.75 99 1016.3
20260905022636 71 12 0.0 0.0 0.00 0.75 0.75 99 1016.3
20260905022131 70 12 0.0 0.0 0.00 0.75 0.75 99 1016.4
20260905021625 70 12 0.0 0.0 0.00 0.75 0.75 99 1016.2
20260905021122 70 12 0.0 0.0 0.00 0.75 0.75 99 1016.1
20260905020621 70 12 0.0 0.0 0.00 0.75 0.75 99 1016.2
20260905020116 70 12 0.0 0.0 0.00 0.75 0.75 99 1015.8
20260905015614 70 12 0.0 0.0 0.00 0.75 0.75 99 1015.9
20260905015109 71 12 0.0 0.0 0.00 0.75 0.75 99 1015.8
20260905014603 71 12 0.0 0.0 0.00 0.75 0.75 99 1015.9
20260905014059 71 12 0.0 0.0 0.00 0.75 0.75 99 1015.6
20260905013555 71 12 0.0 0.0 0.00 0.75 0.75 99 1015.7
20260905013051 71 12 0.0 0.0 0.00 0.75 0.75 99 1015.8
20260905012550 71 12 0.0 0.0 0.00 0.75 0.75 99 1015.7
20260905012047 71 12 0.0 0.0 0.00 0.75 0.75 99 1015.7
20260905011543 71 12 0.0 0.0 0.00 0.75 0.75 99 1015.7
20260905011039 71 12 0.0 0.0 0.00 0.75 0.75 99 1015.6
20260905010539 71 12 0.0 0.0 0.00 0.75 0.75 99 1015.5
20260905010036 71 12 0.0 0.0 0.00 0.75 0.75 99 1015.5
20260905005536 71 12 0.0 0.0 0.00 0.75 0.75 99 1015.2
20260905005031 71 12 0.0 0.0 0.00 0.75 0.75 99 1015.2
20260905004526 71 12 0.0 0.0 0.00 0.75 0.75 99 1015.2
20260905004021 71 12 0.0 0.0 0.00 0.75 0.75 99 1015.1
20260905003517 72 12 0.0 0.0 0.00 0.75 0.75 99 1015.1
20260905003013 72 12 0.0 0.0 0.00 0.75 0.75 99 1014.9